NOAA 16 DEB, 41153

Orbit data source: Space-Track

NOAA 16 DEB, 41153 is space debris in SSO originally from a launch on Thu, 21 Sep 2000 UTC launched from the Air Force Western Test Range (AFWTR). Debris objects in space refer to the collection of defunct objects orbiting the Earth. Examples of debris include non-operational satellites, rocket bodies, and fragments generated from explosions, collisions, or faulty payload assembly.

Loading next visibility...
Identifier
41153, 2000-055CL
Orbit
SSO
Country
Flag of USUS
Related business
Manufacturer
Unknown
Mission
Spacecraft
Bus & Motor
Unknown
Mass
Unknown
Launch date (UTC)
2000-09-21 (25 years ago)
Launch vehicle
Unknown
Launch site
Air Force Western Test Range (AFWTR)
Object type
Payload
Rocket body
Debris
Shape & HBR
Unknown shape, 0.1 m
Radar Cross Section
Small (<0.1 m²)

Expand to show TLE details & history
Last TLE update: 1 day ago

TLE from 1 day ago
0 NOAA 16 DEB
1 41153U 00055CL  25351.52121934  .00004672  00000-0  16124-2 0  9992
2 41153  98.7841  98.6107 0015933 315.3939  44.5963 14.36253136520617
Epoch: 2025-12-17T12:30Z
TLE epoch observation values (Epoch: 2025-12-17T12:30:33.350Z)
Latitude
-0.00008°
Longitude
-175.41813°
Altitude
765.736 km
Speed
7.476 km/s
True Right ascension
06h 34m 26s
True Declination
0° 00' 00"
Sunlit
Object was in full shadow at epoch
Visualization orbit readout
Latitude
Unknown
Longitude
Unknown
Altitude
Unknown
Speed
Unknown
Apparent Right ascension
Unknown
Apparent Declination
Unknown
Sunlit
N/A
Visualization observer readout
Local Sidereal Time
15:36:16
Azimuth
Unknown
Elevation
Unknown
Doppler factor
Unknown
Orbital elements
Apogee altitude
779.432 km
Perigee altitude
756.659 km
Semi-major axis
7,146.182 km
Eccentricity
0.00159
Inclination
98.7841°
RAAN
98.6107°
Arg. of periapsis
315.3939°
True anomaly
44.72467°
Mean anomaly
44.5963°
Eccentric anomaly
44.66047°
Mean motion
3.59279 °/min
Orbital period
100.2 mins
BSTAR
0.0016124
Loading maneuver chart data...
Computing Atmospheric mass density...
Loading historical data...
Loading historical data...
Loading historical data...
Loading historical data...
Loading historical data...
Loading historical data...
Loading historical data...

Documentation

Showing up to 5 results
|